Regional Weather Roundup
Issued by NWS

Home | Current Version | Previous Version | Graphics & Text | Print | Product List | Glossary On
Versions: 1 2 3 4 5 6 7 8 9 10 11 12 13 14 15 16 17 18 19 20 21 22 23 24 25 26 27 28 29 30 31 32 33 34 35 36 37 38 39 40 41 42 43 44 45 46 47 48 49 50
000
ASUS43 KMPX 050801
RWRMN
WEATHER ROUNDUP FOR MINNESOTA
NATIONAL WEATHER SERVICE TWIN CITIES/CHANHASSEN MN
200 AM CST MON DEC 05 2016


NOTE: "FAIR" INDICATES FEW OR NO CLOUDS BELOW 12,000 FEET WITH NO
SIGNIFICANT WEATHER AND/OR OBSTRUCTIONS TO VISIBILITY. N/A MEANS
CURRENT SKY AND/OR WEATHER CONDITIONS ARE NOT AVAILABLE.

MNZ060>063-068>070-050900-
   Twin Cities Metro

CITY           SKY/WX    TMP DP  RH WIND       PRES   REMARKS
TWIN CITIES    CLEAR     31  27  85 SW5       29.81R WCI  26
ST PAUL        CLEAR     29  29 100 SE6       29.82R WCI  23
CRYSTAL        CLEAR     30  25  81 S3        29.79R
BLAINE         CLEAR     34  32  93 SW7       29.79R WCI  28
LAKEVILLE      CLEAR     27  27 100 CALM      29.81R
EDEN PRAIRIE   CLEAR     30  27  88 SW5       29.80R FOG     WCI  25
SOUTH ST PAUL  CLEAR     28  28  98 CALM      29.82R FOG
LAKE ELMO      FAIR      30  28  93 S5        29.81R WCI  25
$$
MNZ001>005-007-008-013>017-022>024-027-028-050900-
   Northwest Minnesota

CITY           SKY/WX    TMP DP  RH WIND       PRES   REMARKS
BEMIDJI        CLOUDY    28  26  96 W6        29.68R WCI  21
HALLOCK        CLOUDY    30  28  93 W6        29.67S WCI  24
ROSEAU         CLOUDY    30  27  86 W8        29.65R WCI  23
WARROAD        CLOUDY    30  27  86 W10       29.64R WCI  21
THIEF RVR FALL CLOUDY    27  25  92 W8        29.69S WCI  19
CROOKSTON      CLOUDY    28  27  93 CALM      29.71R
FOSSTON        CLOUDY    27  25  93 W5        29.70R WCI  21
DETROIT LAKES  CLEAR     28  27  93 CALM      29.71S
MOORHEAD       CLEAR     25  23  93 CALM      29.72S
PARK RAPIDS    CLOUDY    31  25  78 W7        29.69R WCI  24
$$
MNZ006-009>011-018-025>026-050900-
   North Central Minnesota

CITY           SKY/WX    TMP DP  RH WIND       PRES   REMARKS
BAUDETTE       CLOUDY    30  27  88 W10       29.64R WCI  21
FLAG ISLAND    CLOUDY    30  28  93 W7        29.61R WCI  23
INTL FALLS     CLOUDY    30  27  88 SW6       29.64R FOG     WCI  24
WASKISH        CLOUDY    30  28  93 W12G20    29.67R WCI  21
BIG FORK       CLOUDY    30  27  86 W5        29.67R WCI  25
LONGVILLE      CLOUDY    30  27  86 W5        29.70R WCI  25
GRAND RAPIDS   CLOUDY    30  26  85 W8        29.70R WCI  22
CRANE LAKE     CLOUDY    28  27  93 CALM      29.66R
ORR            CLOUDY    28  27  93 CALM      29.62R
COOK           CLOUDY    28  27  93 SW3       29.66R
$$
MNZ012-019>021-037-050900-
   Northeast Minnesota

CITY           SKY/WX    TMP DP  RH WIND       PRES   REMARKS
DULUTH         CLOUDY    31  29  92 W13       29.68R WCI  21
ELY            LGT SNOW  30  30 100 W7        29.63R WCI  23
HIBBING        CLOUDY    29  27  92 VRB5      29.67R WCI  24
EVELETH        MOCLDY    32  31  94 W7        29.67R WCI  26
DULUTH HARBOR  CLOUDY    36  30  80 W12       29.73R
TWO HARBORS    MOCLDY    34  28  80 W6        29.66R WCI  29
SILVER BAY     CLOUDY    34  30  86 CALM      29.65R
GRAND MARAIS     N/A     33  32  96 CALM      29.65R
G MARAIS ARPRT CLOUDY    28  25  86 CALM      29.60S
$$
MNZ029>031-032-039>041-046>048-054>057-064-050900-
   West Central Minnesota

CITY           SKY/WX    TMP DP  RH WIND       PRES   REMARKS
FERGUS FALLS   PTCLDY    25  25 100 S3        29.76S
WHEATON        CLOUDY   N/A N/A N/A SE6       29.73F
MORRIS         PTCLDY    28  27  93 SE6       29.73S WCI  22
ALEXANDRIA     CLEAR     27  25  92 SW8       29.74S WCI  19
ELBOW LAKE     FAIR      28  27  96 CALM      29.73F
WADENA         CLEAR     25  23  93 SW3       29.72R
GLENWOOD       PTCLDY    27  27 100 SW3       29.75S
APPLETON       PTCLDY    28  27  93 S3        29.74F
BENSON         PTCLDY    28  27  93 SE3       29.75S
ORTONVILLE     PTCLDY    28  25  86 CALM      29.72F
MADISON        CLOUDY    30  28  93 CALM      29.73F
WILLMAR        FAIR      30  28  93 CALM      29.77S
$$
MNZ033>034-036-042>043-049>051-058-059-050900-
   Central Minnesota

CITY           SKY/WX    TMP DP  RH WIND       PRES   REMARKS
ST CLOUD       CLEAR     28  27  96 S5        29.77R WCI  23
PAYNESVILLE    PTCLDY    28  28 100 SW3       29.77S
AITKIN         MOCLDY    34  27  75 SW3       29.71R
PINE RIVER     CLOUDY    30  28  93 CALM      29.75R
BRAINERD       CLEAR     29  27  92 SW10      29.74R WCI  20
STAPLES        CLEAR     25  25 100 S3        29.73R
LONG PRAIRIE   FAIR      25  23  93 S6        29.75R WCI  18
LITTLE FALLS   CLEAR     28  27  93 CALM      29.76R
LITCHFIELD     CLEAR     30  28  93 CALM      29.78S
BUFFALO        CLEAR     30  28  93 CALM      29.79S
MAPLE LAKE     CLEAR     31  30  96 CALM      29.78S
$$
MNZ037-044-045-052-053-050900-
   East Central Minnesota

CITY           SKY/WX    TMP DP  RH WIND       PRES   REMARKS
PRINCETON      CLEAR     30  28  93 CALM      29.78R
MORA           CLEAR     30  28  93 SW7       29.78R WCI  23
CAMBRIDGE      CLEAR     32  28  86 S3        29.76R
RUSH CITY      CLEAR     30  28  93 SW3       29.78R
MOOSE LAKE     CLOUDY    32  28  86 W5        29.71R WCI  27
HINCKLEY       FAIR      32  30  93 SW7       29.76R WCI  26
CLOQUET        CLOUDY    32  28  86 SW8       29.70R WCI  25
MCGREGOR       CLOUDY    32  30  93 SW6       29.72R WCI  26
$$
MNZ071>073-080-081-089-090-097-098-050900-
   Southwest Minnesota

CITY           SKY/WX    TMP DP  RH WIND       PRES   REMARKS
MONTEVIDEO     PTCLDY    28  28 100 S3        29.76F
GRANITE FALLS  CLOUDY    32  29  90 SE6       29.77F WCI  26
CANBY          CLOUDY    36  30  78 CALM      29.74F
MARSHALL       CLOUDY    33  29  85 S6        29.75F WCI  28
REDWOOD FALLS  PTCLDY    30  26  85 S5        29.77F WCI  25
OLIVIA         CLEAR     30  28  93 S5        29.77S WCI  25
PIPESTONE      CLOUDY    32  30  93 SE7       29.72F WCI  26
WINDOM         PTCLDY    32  28  86 CALM      29.77F
WORTHINGTON    PTCLDY    31  30  96 S10       29.76F WCI  22
JACKSON        PTCLDY    30  30 100 S9        29.78S WCI  22
TRACY          CLOUDY    36  31  84 S7        29.75F
SLAYTON        CLOUDY    32  30  90 S6        29.75F WCI  27
$$
MNZ065>067-074>077-082>085-091>093-050900-
   South Central Minnesota

CITY           SKY/WX    TMP DP  RH WIND       PRES   REMARKS
MANKATO        CLEAR     30  29  96 S6        29.81S WCI  24
NEW ULM        CLEAR     30  28  93 S3        29.79S
ST JAMES       PTCLDY    32  30  93 S6        29.80F WCI  26
FAIRMONT       CLEAR     29  28  96 S10       29.81S WCI  20
GLENCOE        CLEAR     32  32 100 S5        29.79R WCI  27
FARIBAULT      CLEAR     30  30 100 S3        29.82R
OWATONNA       CLEAR     30  28  93 S6        29.82S WCI  24
WASECA         CLEAR     32  32 100 S3        29.82S
ALBERT LEA     CLEAR     36  36 100 S3        29.82S
$$
MNZ078>079-086>088-094>096-050900-
   Southeast Minnesota

CITY           SKY/WX    TMP DP  RH WIND       PRES   REMARKS
ROCHESTER      CLEAR     28  28 100 SW10      29.83S WCI  19
RED WING       CLEAR     28  27  93 CALM      29.82R FOG
STANTON        CLEAR     31  29  92 S3        29.81R
DODGE CENTER   CLEAR     30  28  93 SW12      29.82R WCI  21
WINONA         MOCLDY    34  32  93 SW8       29.86R WCI  27
PRESTON        CLOUDY    32  31  96 SW8       29.84S FOG     WCI  25
$$
ABBREVIATIONS USED IN REMARKS
   TC - TEMPERATURES IN CELSIUS
  WCI - WIND CHILL INDEX
   HX - HEAT INDEX
  VSB - VISIBILITY
$$




USA.gov is the U.S. government's official web portal to all federal, state and local government web resources and services.